Tracking 26544 objects as of 9-Dec-2022
HD Live streaming from Space Station
objects crossing your sky now

ATLAS 5 CENTAUR DEB

Track ATLAS 5 CENTAUR DEB now!


NORAD ID: 46657
Int'l Code: 2018-079CK
Perigee: 5,556.0 km
Apogee: 40,912.1 km
Inclination: 9.0 °
Period: 844.9 minutes
Semi major axis: 29605 km
RCS: Unknown
Launch date: October 17, 2018
Source: United States (US)
Launch site: AIR FORCE EASTERN TEST RANGE (AFETR)

Note: This is SATELLITE DEBRIS
aabbcc
Your satellite tracking list
Your tracking list is empty




NASA's NSSDC Master Catalog

Two Line Element Set (TLE):
1 46657U 18079CK  22342.81802185 -.00000105  00000-0  00000+0 0  9995
2 46657   9.0265 146.5633 5971300 102.7162 326.7106  1.70433340 13457
Source of the keplerian elements: AFSPC